• MPC Preparation (Info)

  • MPEC 2019-C150: 2019 CM5

    The following Minor Planet Electronic Circular may be linked-to from your own Web pages, but must not otherwise be redistributed electronically.

    A form allowing access to any MPEC is at the bottom of this page.


    Read MPEC 2019-C149 Read MPEC 2019-C151


    M.P.E.C. 2019-C150                               Issued 2019 Feb. 13, 06:20 UT
    
         The Minor Planet Electronic Circulars contain information on unusual
             minor planets and routine data on comets.  They are published
        on behalf of Division F of the International Astronomical Union by the
              Minor Planet Center, Smithsonian Astrophysical Observatory,
                              Cambridge, MA 02138, U.S.A.
    
                 Prepared using the Tamkin Foundation Computer Network
    
                                  MPC@CFA.HARVARD.EDU
                URL https://www.minorplanetcenter.net/    ISSN 1523-6714
    
                                       2019 CM5
    
    Observations:
         K19C05M* C2019 02 11.43441 13 25 13.76 +11 39 27.3          19.6 GVEC150G96
         K19C05M  C2019 02 11.43954 13 25 15.05 +11 37 26.4          19.6 GVEC150G96
         K19C05M  C2019 02 11.44472 13 25 16.35 +11 35 22.3          19.5 GVEC150G96
         K19C05M  C2019 02 11.49342 13 25 28.05 +11 16 13.8          19.9 GVEC150V06
         K19C05M  C2019 02 11.49407 13 25 28.21 +11 15 58.7          19.8 GVEC150V06
         K19C05M  C2019 02 11.49472 13 25 28.38 +11 15 43.0          19.8 GVEC150V06
         K19C05M  C2019 02 11.49537 13 25 28.51 +11 15 28.0          19.8 GVEC150V06
         K19C05M EC2019 02 12.15135 13 30 34.52 +07 40 57.5          20   GVEC150204
         K19C05M HC2019 02 12.15663 13 30 35.32 +07 39 32.2                VEC150204
         K19C05M  C2019 02 12.47805 13 32 28.65 +06 22 25.5          20.1 GVEC150G96
         K19C05M  C2019 02 12.47829 13 32 28.68 +06 22 21.1          19.6 GVEC150G96
         K19C05M  C2019 02 12.47875 13 32 28.69 +06 22 15.6          19.4 GVEC150G96
         K19C05M KC2019 02 12.64564 13 33 29.83 +05 58 54.3          19.4 GVEC150474
         K19C05M KC2019 02 12.64947 13 33 30.14 +05 58 05.4          20.0 GVEC150474
         K19C05M KC2019 02 12.65139 13 33 30.34 +05 57 42.0          19.0 GVEC150474
         K19C05M KC2019 02 13.09260913 35 23.93 +04 18 07.2          20.5 GVEC150L01
         K19C05M KC2019 02 13.09363413 35 24.00 +04 17 56.6          20.6 GVEC150L01
         K19C05M KC2019 02 13.09466013 35 24.06 +04 17 46.0          20.8 GVEC150L01
         K19C05M KC2019 02 13.09929613 35 24.35 +04 16 58.0          20.7 GVEC150L01
    
    Observer details:
    204 Schiaparelli Observatory.  Observer L. Buzzi.  0.84-m f/3.5 reflector +
        CCD.
    474 Mount John Observatory, Lake Tekapo.  Observers A. C. Gilmore,
        P. M. Kilmartin.  Measurer P. M. Kilmartin.  1.0-m f/7.7 reflector + CCD.
    G96 Mt. Lemmon Survey.  Observers R. A. Kowalski, T. A. Pruyne.  Measurers
        B. M. Africano, E. J. Christensen, G. A. Farneth, D. C. Fuls, A. R. Gibbs,
        A. D. Grauer, H. Groeller, R. A. Kowalski, S. M. Larson, G. J. Leonard,
        T. A. Pruyne, R. L. Seaman, F. C. Shelly.  1.5-m reflector + 10K CCD.
    L01 Visnjan Observatory, Tican.  Observers K. Korlevic, F. Valentine.
        Measurer K. Korlevic.  1.0-m f/2.9 reflector + CCD.
    V06 Catalina Sky Survey-Kuiper.  Observer E. J. Christensen.  Measurers
        B. M. Africano, E. J. Christensen, G. A. Farneth, D. C. Fuls, A. R. Gibbs,
        A. D. Grauer, H. Groeller, R. A. Kowalski, S. M. Larson, G. J. Leonard,
        T. A. Pruyne, R. L. Seaman, F. C. Shelly.  1.55-m reflector + CCD.
    
    Orbital elements:
    2019 CM5                                                 Earth MOID = 0.0009 AU
    Epoch 2019 Apr. 27.0 TT = JDT 2458600.5                 MPC
    M  41.02036              (2000.0)            P               Q
    n   0.47032491     Peri.   11.90605     -0.60910000     -0.79306838
    a   1.6375858      Node   115.61874     +0.72707411     -0.56155388
    e   0.3998277      Incl.    0.40053     +0.31679713     -0.23600802
    P   2.10           H   27.8           G   0.15           U   5
    Residuals in seconds of arc
    190211 G96  0.0   0.9-    190212 204  0.0   0.2+    190212 474  0.4-  0.6+
    190211 G96  0.2-  0.7+    190212 204  0.4-  0.2-    190213 L01  0.2-  0.2+
    190211 G96  0.3-  0.0     190212 G96  0.0   0.8+    190213 L01  0.0   0.2+
    190211 V06  0.3-  0.6+    190212 G96  0.2+  0.3-    190213 L01  0.1-  0.1+
    190211 V06  0.2-  0.7+    190212 G96  0.1-  0.5+    190213 L01  0.1+  0.0
    190211 V06  0.0   0.2+    190212 474  0.2+  0.4-
    190211 V06  0.4-  0.4+    190212 474  0.7-  0.5-
    
    Ephemeris:
    2019 CM5                 a,e,i = 1.64, 0.40, 0                   q = 0.9828
    Date    TT    R. A. (2000) Decl.     Delta      r     Elong.  Phase     V
    2019 01 14    01 53 47.7 +08 43 01   0.07832 0.9951    96.3    79.2    25.0
    ...
    2019 01 29    01 59 28.8 +12 16 15   0.03356 0.9817    83.6    94.5    23.8
    ...
    2019 02 06    02 25 54.9 +28 34 06   0.0090610.9856    86.9    92.6    20.8
    ...
    2019 02 12    13 29 36.2 +08 31 18   0.01128 0.9933   123.6    55.8    20.1
    2019 02 13    13 34 54.5 +04 41 16   0.01432 0.9950   122.5    56.8    20.6
    2019 02 14    13 38 14.7 +02 12 19   0.01740 0.9967   122.1    57.1    21.1
    ...
    2019 02 20    13 45 09.1 -03 38 30   0.03615 1.0097   124.8    53.5    22.6
    ...
    2019 02 28    13 44 41.5 -05 37 54   0.06127 1.0327   132.3    45.2    23.5
    ...
    2019 03 15    13 34 15.3 -06 06 36   0.1105  1.0910   149.6    27.5    24.4
    
    A. U. Tomatic                (C) Copyright 2019 MPC           M.P.E.C. 2019-C150
    

    Read MPEC 2019-C149 Read MPEC 2019-C151


    MPEC number:

    Enter an MPEC number in one of the following forms:

    • 1997-B01 (the full form)
    • J97B01 (the packed version of the full form)
    • B01 (the abbreviated form)